DELTA 1 DEB, 27728

Orbit data source: Space-Track

DELTA 1 DEB, 27728 is space debris in LEO originally from a launch on Thu, 29 Jul 1976 UTC launched from the Air Force Western Test Range (AFWTR). Debris objects in space refer to the collection of defunct objects orbiting the Earth. Examples of debris include non-operational satellites, rocket bodies, and fragments generated from explosions, collisions, or faulty payload assembly.

Loading next visibility...
Identifier
27728, 1976-077FT
Orbit
LEO
Country
Flag of USUS
Related business
Manufacturer
Unknown
Mission
Spacecraft
Bus & Motor
Unknown
Mass
Unknown
Launch date (UTC)
1976-07-29 (49 years ago)
Launch vehicle
Unknown
Launch site
Air Force Western Test Range (AFWTR)
Object type
Payload
Rocket body
Debris
Shape & HBR
Unknown shape, 0.1 m
Radar Cross Section
Small (<0.1 m²)

Expand to show TLE details & history
Last TLE update: 15 hours ago

TLE from 15 hours ago
0 DELTA 1 DEB
1 27728U 76077FT  25289.10453350  .00001292  00000-0  15883-1 0  9990
2 27728 102.4468  50.6396 0395636 219.1346 329.0183 11.85529223397351
Epoch: 2025-10-16T02:30Z
TLE epoch observation values (Epoch: 2025-10-16T02:30:31.694Z)
Latitude
-5.71595°
Longitude
166.87881°
Altitude
1,477.633 km
Speed
7.243 km/s
True Right ascension
15h 17m 31s
True Declination
-5° 41' 06"
Sunlit
Object was in daylight at epoch
Visualization orbit readout
Latitude
Unknown
Longitude
Unknown
Altitude
Unknown
Speed
Unknown
Apparent Right ascension
Unknown
Apparent Declination
Unknown
Sunlit
N/A
Visualization observer readout
Local Sidereal Time
12:35:42
Azimuth
Unknown
Elevation
Unknown
Doppler factor
Unknown
Orbital elements
Apogee altitude
2,065.315 km
Perigee altitude
1,422.635 km
Semi-major axis
8,122.112 km
Eccentricity
0.03956
Inclination
102.4468°
RAAN
50.6396°
Arg. of periapsis
219.1346°
True anomaly
326.58214°
Mean anomaly
329.0183°
Eccentric anomaly
327.81072°
Mean motion
2.9651 °/min
Orbital period
121.41 mins
BSTAR
0.015883
Loading maneuver chart data...
Computing Atmospheric mass density...
Loading historical data...
Loading historical data...
Loading historical data...
Loading historical data...
Loading historical data...
Loading historical data...
Loading historical data...

Documentation

Showing up to 5 results
|